Location: Audinghen
(50.8518°N, 1.6129°E)
Time: 06:33:54
(UTC+00:00)

Cosmos 1758 Rocket - Pass Details

Date: 07 August 2020
Orbit: 603 x 635 km, 82.5° (Epoch: 23 September)

Event Time Altitude Azimuth Distance (km) Brightness Sun altitude
Rises 03:24:49 0° 351° (N) 2,871 7.5 -9.2°
Reaches altitude 10° 03:27:03 10° 354° (N) 1,962 6.6 -9.0°
Maximum altitude 03:31:23 68° 78° (ENE) 653 3.9 -8.4°
Drops below altitude 10° 03:35:40 10° 162° (SSE) 1,949 5.9 -7.9°
Sets 03:37:53 0° 165° (SSE) 2,850 6.7 -7.6°
